• In Uzbekistan
  • List of Countries
  • For 7 days
  • Water Temperature
  • Satellite Maps
  • Weather Map
  • Weather Widgets
  • user-avatar
    Login

    Hourly Weather Rivas

    Today, 12 December, Wednesday

    Time Temperature Precipitation Wind Pressure Humidity
    00:00 +26°C° 0.1 mm 8 mps 754 mmHg 80%
    01:00 +26°C° 0.1 mm 8 mps 754 mmHg 80%
    02:00 +26°C° 0.1 mm 8 mps 754 mmHg 81%
    03:00 +26°C° 0.1 mm 8 mps 754 mmHg 82%
    04:00 +26°C° 0.1 mm 7 mps 754 mmHg 82%
    05:00 +24°C° 0.1 mm 7 mps 754 mmHg 83%
    06:00 +24°C° 0.1 mm 7 mps 754 mmHg 83%
    07:00 +27°C° 0 mm 7 mps 754 mmHg 79%
    08:00 +28°C° 0 mm 8 mps 755 mmHg 74%
    09:00 +29°C° 0 mm 8 mps 755 mmHg 69%
    10:00 +31°C° 0 mm 8 mps 755 mmHg 66%
    11:00 +32°C° 0 mm 8 mps 754 mmHg 63%
    12:00 +33°C° 0 mm 8 mps 754 mmHg 59%
    13:00 +32°C° 0 mm 8 mps 753 mmHg 60%
    14:00 +32°C° 0 mm 7 mps 752 mmHg 60%
    15:00 +32°C° 0 mm 7 mps 752 mmHg 60%
    16:00 +30°C° 0 mm 7 mps 752 mmHg 65%
    17:00 +29°C° 0 mm 7 mps 752 mmHg 70%
    18:00 +28°C° 0 mm 6 mps 752 mmHg 74%
    19:00 +28°C° 0 mm 6 mps 753 mmHg 75%
    20:00 +27°C° 0 mm 6 mps 753 mmHg 76%
    21:00 +27°C° 0 mm 7 mps 754 mmHg 77%
    22:00 +27°C° 0 mm 7 mps 754 mmHg 79%
    23:00 +26°C° 0 mm 6 mps 754 mmHg 80%

    Tomorrow, 13 December, Thursday

    Time Temperature Precipitation Wind Pressure Humidity
    00:00 +26°C° 0 mm 6 mps 754 mmHg 82%
    01:00 +26°C° 0 mm 6 mps 753 mmHg 84%
    02:00 +24°C° 0 mm 6 mps 753 mmHg 85%
    03:00 +24°C° 0 mm 6 mps 753 mmHg 87%
    04:00 +24°C° 0.1 mm 6 mps 753 mmHg 87%
    05:00 +24°C° 0.1 mm 6 mps 753 mmHg 87%
    06:00 +24°C° 0.1 mm 6 mps 753 mmHg 87%
    07:00 +26°C° 0.1 mm 6 mps 754 mmHg 81%
    08:00 +28°C° 0.1 mm 6 mps 754 mmHg 75%
    09:00 +29°C° 0.1 mm 7 mps 755 mmHg 69%
    10:00 +30°C° 0 mm 7 mps 754 mmHg 66%
    11:00 +32°C° 0 mm 6 mps 754 mmHg 63%
    12:00 +33°C° 0 mm 6 mps 753 mmHg 59%
    13:00 +33°C° 0 mm 6 mps 753 mmHg 59%
    14:00 +33°C° 0 mm 5 mps 752 mmHg 59%
    15:00 +33°C° 0 mm 5 mps 751 mmHg 59%
    16:00 +30°C° 0 mm 5 mps 751 mmHg 65%
    17:00 +29°C° 0 mm 4 mps 752 mmHg 70%
    18:00 +27°C° 0 mm 4 mps 752 mmHg 76%
    19:00 +27°C° 0 mm 4 mps 753 mmHg 77%
    20:00 +27°C° 0 mm 5 mps 753 mmHg 78%
    21:00 +27°C° 0 mm 5 mps 754 mmHg 79%
    22:00 +26°C° 0 mm 5 mps 754 mmHg 81%
    23:00 +26°C° 0 mm 5 mps 754 mmHg 82%

    Day after tomorrow, 14 December, Friday

    Time Temperature Precipitation Wind Pressure Humidity
    00:00 +26°C° 0 mm 5 mps 753 mmHg 84%
    01:00 +25°C° 0 mm 5 mps 753 mmHg 86%
    02:00 +25°C° 0 mm 4 mps 753 mmHg 88%
    03:00 +25°C° 0 mm 4 mps 752 mmHg 90%
    04:00 +23°C° 0 mm 4 mps 753 mmHg 90%
    05:00 +23°C° 0 mm 4 mps 753 mmHg 91%
    06:00 +23°C° 0 mm 4 mps 753 mmHg 91%
    07:00 +26°C° 0 mm 5 mps 754 mmHg 84%
    08:00 +28°C° 0 mm 5 mps 754 mmHg 76%
    09:00 +29°C° 0 mm 5 mps 755 mmHg 69%
    10:00 +30°C° 0 mm 5 mps 754 mmHg 66%
    11:00 +32°C° 0 mm 5 mps 753 mmHg 63%
    12:00 +33°C° 0 mm 5 mps 753 mmHg 59%
    13:00 +33°C° 0 mm 5 mps 752 mmHg 60%
    14:00 +33°C° 0 mm 5 mps 751 mmHg 60%
    15:00 +33°C° 0 mm 5 mps 750 mmHg 60%
    16:00 +32°C° 0 mm 5 mps 751 mmHg 67%
    17:00 +30°C° 0 mm 5 mps 751 mmHg 73%
    18:00 +28°C° 0 mm 5 mps 751 mmHg 79%
    19:00 +28°C° 0.1 mm 5 mps 752 mmHg 80%
    20:00 +28°C° 0.1 mm 5 mps 753 mmHg 81%
    21:00 +28°C° 0.1 mm 6 mps 754 mmHg 81%
    22:00 +27°C° 0.1 mm 6 mps 754 mmHg 82%
    23:00 +27°C° 0.1 mm 6 mps 754 mmHg 82%

    15 December, Saturday

    Time Temperature Precipitation Wind Pressure Humidity
    00:00 +27°C° 0.1 mm 6 mps 753 mmHg 83%
    01:00 +27°C° 0.1 mm 6 mps 753 mmHg 83%
    02:00 +26°C° 0.1 mm 6 mps 753 mmHg 84%
    03:00 +26°C° 0.1 mm 6 mps 753 mmHg 84%
    04:00 +26°C° 0.1 mm 6 mps 753 mmHg 83%
    05:00 +26°C° 0.1 mm 6 mps 753 mmHg 83%
    06:00 +26°C° 0.1 mm 7 mps 754 mmHg 82%
    07:00 +27°C° 0 mm 7 mps 754 mmHg 77%
    08:00 +29°C° 0 mm 8 mps 755 mmHg 72%
    09:00 +31°C° 0 mm 9 mps 755 mmHg 66%
    10:00 +32°C° 0.1 mm 9 mps 754 mmHg 63%
    11:00 +33°C° 0.1 mm 9 mps 754 mmHg 60%
    12:00 +33°C° 0.1 mm 8 mps 753 mmHg 57%
    13:00 +33°C° 0.1 mm 8 mps 752 mmHg 57%
    14:00 +33°C° 0.1 mm 8 mps 752 mmHg 57%
    15:00 +33°C° 0.1 mm 8 mps 751 mmHg 57%
    16:00 +32°C° 0.1 mm 8 mps 751 mmHg 61%
    17:00 +30°C° 0.1 mm 7 mps 752 mmHg 65%
    18:00 +29°C° 0.1 mm 7 mps 753 mmHg 69%
    19:00 +28°C° 0.1 mm 8 mps 753 mmHg 69%
    20:00 +28°C° 0.1 mm 9 mps 754 mmHg 70%
    21:00 +27°C° 0.1 mm 10 mps 755 mmHg 71%
    22:00 +27°C° 0 mm 10 mps 755 mmHg 69%
    23:00 +27°C° 0 mm 10 mps 754 mmHg 68%

    16 December, Sunday

    Time Temperature Precipitation Wind Pressure Humidity
    00:00 +27°C° 0 mm 10 mps 754 mmHg 67%
    01:00 +26°C° 0 mm 10 mps 754 mmHg 67%
    02:00 +26°C° 0 mm 9 mps 754 mmHg 66%
    03:00 +26°C° 0 mm 9 mps 753 mmHg 66%
    04:00 +26°C° 0 mm 9 mps 754 mmHg 66%
    05:00 +26°C° 0 mm 9 mps 754 mmHg 67%
    06:00 +26°C° 0 mm 9 mps 754 mmHg 67%
    07:00 +27°C° 0 mm 9 mps 755 mmHg 64%
    08:00 +28°C° 0 mm 9 mps 755 mmHg 61%
    09:00 +29°C° 0 mm 10 mps 755 mmHg 59%
    10:00 +31°C° 0 mm 9 mps 755 mmHg 57%
    11:00 +32°C° 0 mm 9 mps 754 mmHg 55%
    12:00 +33°C° 0 mm 9 mps 754 mmHg 53%
    13:00 +33°C° 0 mm 9 mps 753 mmHg 53%
    14:00 +33°C° 0 mm 8 mps 752 mmHg 54%
    15:00 +33°C° 0 mm 8 mps 751 mmHg 55%
    16:00 +32°C° 0.1 mm 8 mps 752 mmHg 59%
    17:00 +29°C° 0.1 mm 8 mps 752 mmHg 64%
    18:00 +28°C° 0.1 mm 8 mps 753 mmHg 68%
    19:00 +28°C° 0 mm 8 mps 753 mmHg 69%
    20:00 +28°C° 0 mm 8 mps 754 mmHg 69%
    21:00 +28°C° 0 mm 8 mps 755 mmHg 70%
    22:00 +27°C° 0 mm 8 mps 754 mmHg 71%
    23:00 +27°C° 0 mm 8 mps 754 mmHg 71%

    17 December, Monday

    Time Temperature Precipitation Wind Pressure Humidity
    00:00 +27°C° 0 mm 8 mps 754 mmHg 72%
    01:00 +27°C° 0 mm 8 mps 753 mmHg 72%
    02:00 +26°C° 0 mm 8 mps 753 mmHg 73%
    03:00 +26°C° 0 mm 8 mps 753 mmHg 73%
    04:00 +26°C° 0 mm 8 mps 753 mmHg 73%
    05:00 +26°C° 0 mm 8 mps 754 mmHg 73%
    06:00 +26°C° 0 mm 8 mps 754 mmHg 74%
    07:00 +27°C° 0 mm 9 mps 754 mmHg 70%
    08:00 +28°C° 0 mm 9 mps 755 mmHg 66%
    09:00 +31°C° 0 mm 10 mps 755 mmHg 63%
    10:00 +31°C° 0.2 mm 10 mps 755 mmHg 61%
    11:00 +32°C° 0.2 mm 9 mps 754 mmHg 59%
    12:00 +33°C° 0.2 mm 9 mps 753 mmHg 57%
    13:00 +33°C° 0 mm 9 mps 753 mmHg 56%
    14:00 +33°C° 0 mm 9 mps 752 mmHg 56%
    15:00 +33°C° 0 mm 8 mps 751 mmHg 55%
    16:00 +32°C° 0 mm 8 mps 752 mmHg 60%
    17:00 +29°C° 0 mm 7 mps 752 mmHg 64%
    18:00 +28°C° 0 mm 6 mps 753 mmHg 69%
    19:00 +28°C° 0 mm 7 mps 753 mmHg 70%
    20:00 +28°C° 0 mm 7 mps 754 mmHg 72%
    21:00 +27°C° 0 mm 8 mps 754 mmHg 73%
    22:00 +27°C° 0 mm 8 mps 754 mmHg 74%
    23:00 +27°C° 0 mm 8 mps 754 mmHg 75%
    Show more